Temperature
15 15 15 15 15 15 15 14 14 14 13 13 13 13 13 13 13 13 13 13 13 13 13 13 13 12 12 12 12 12 12 12 12 12 12 12 12 12 11 12 12 12 12
15 15 15 15 14 14 14 14 13 13 13 13 13 13 13 13 13 13 13 13 13 13 13 13 12 12 12 12 12 12 12 12 12 12 11 11 11 11 11 11 11 11 11
15 15 14 14 14 14 14 14 13 13 13 13 13 13 13 13 13 13 13 13 13 13 13 13 12 12 12 12 12 12 11 11 11 11 11 11 11 11 11 11 11 11 11
14 14 14 14 14 14 14 14 13 13 13 13 13 13 13 13 13 13 13 13 13 13 13 13 12 12 12 12 11 11 11 11 11 11 11 11 11 11 11 11 11 11 11
14 14 14 14 14 14 14 14 13 13 13 13 13 13 13 13 13 13 13 13 13 13 12 12 12 12 11 11 11 11 11 11 10 10 10 10 10 10 10 10 10 10 10
14 14 14 14 13 13 13 13 13 13 13 13 13 13 13 13 13 13 13 13 13 12 12 12 11 11 11 11 11 10 10 10 10 10 10 10 10 10 10 10 10 10 10
14 14 14 14 13 13 13 13 13 13 13 13 13 12 12 13 13 13 12 12 12 12 11 11 11 11 10 10 10 10 10 10 10 9 9 9 9 9 9 9 9 9 9
14 14 14 13 13 13 13 13 13 13 13 13 12 12 12 12 11 12 12 12 11 11 11 11 10 10 10 10 10 9 9 9 9 9 9 9 9 9 9 9 9 9 9
14 13 13 13 13 13 13 13 13 13 13 13 12 12 12 13 11 10 11 11 11 10 10 10 10 10 9 9 9 9 9 9 8 8 8 8 8 8 8 8 9 9 9
13 13 13 13 13 13 13 13 13 13 12 12 12 12 11 11 10 10 9 10 10 9 9 9 9 9 9 9 8 8 8 8 8 8 8 8 8 8 8 8 8 8 8
13 13 13 13 13 13 13 13 13 12 12 12 12 12 11 11 10 9 9 9 8 8 8 8 8 8 8 8 8 8 7 7 7 7 7 7 7 7 7 7 7 7 8
13 13 13 12 12 12 12 12 12 12 12 12 12 11 11 10 10 9 8 8 7 7 8 8 7 7 7 7 7 7 6 6 7 7 6 6 6 7 7 7 7 7 7
12 12 12 12 12 12 12 12 12 12 12 12 11 11 11 10 10 9 8 7 7 6 7 7 7 6 6 6 6 6 6 6 6 6 6 6 6 6 6 6 6 6 6
12 12 12 12 12 12 12 12 12 12 12 11 11 11 10 10 10 9 8 7 6 6 6 6 6 6 6 5 5 5 5 5 5 5 5 5 5 5 5 5 5 6 6
12 11 11 11 11 11 11 11 11 11 11 11 10 10 10 10 9 8 7 7 6 5 5 5 5 5 5 5 5 4 4 4 4 4 4 4 4 4 4 4 5 5 5
11 11 11 11 11 11 11 11 11 11 10 10 10 10 9 9 8 8 7 6 6 5 4 4 4 4 4 4 4 4 3 3 3 3 3 3 3 4 4 4 4 4 4
11 11 11 10 10 10 10 10 10 10 10 10 10 9 9 8 8 7 7 6 5 4 4 4 4 4 3 3 3 3 3 3 3 3 3 3 3 3 3 3 4 4 4
10 10 10 10 10 10 10 10 10 9 9 9 9 9 8 8 7 7 6 5 5 4 3 3 3 3 3 3 2 2 2 2 2 2 2 2 2 2 3 3 3 3 3
10 10 9 9 9 9 9 9 9 9 9 8 8 8 7 7 6 6 5 5 4 3 3 3 2 2 2 2 2 2 2 2 2 2 2 1 2 2 2 2 2 2 3
9 9 9 9 9 9 9 8 8 8 8 8 7 7 7 6 6 5 5 4 4 3 3 3 2 2 2 2 1 1 1 1 1 1 1 1 1 1 1 2 2 2 2
8 8 8 8 8 8 8 8 8 8 7 7 7 7 6 6 5 4 4 4 3 3 2 2 2 2 2 1 1 1 1 1 1 1 1 1 1 1 1 1 1 1 2
8 8 8 7 7 8 7 7 7 7 7 7 6 6 6 5 5 4 4 3 3 3 2 2 2 1 1 1 1 1 1 1 0 1 1 1 1 0 1 1 1 1 1
7 7 7 7 7 7 7 7 6 6 6 6 6 5 5 4 4 3 3 3 2 2 2 2 2 1 1 1 1 1 1 1 0 1 0 0 0 0 0 0 0 1 1
6 6 6 6 6 6 6 6 6 6 5 5 5 4 4 4 3 3 3 2 2 2 2 2 2 2 2 1 1 1 1 1 1 0 0 -0 0 0 0 0 0 0 0
6 6 6 6 6 6 6 5 5 5 5 4 4 4 3 3 3 2 2 2 1 2 1 1 1 1 1 1 1 1 1 0 0 0 0 -0 -0 -0 -0 -0 -0 -0 -0
5 5 5 5 5 5 5 5 4 4 4 4 3 3 3 2 2 2 1 1 1 1 1 1 1 1 1 1 1 0 0 0 -0 -0 0 -0 -0 -0 -0 -0 -0 -0 -1
Wind_Speed
7 7 7 7 6 6 6 5 5 4 4 3 3 4 4 4 4 5 4 3 5 7 8 9 9 9 8 7 6 5 5 7 8 8 7 6 6 6 5 5 5 4 4
8 7 6 6 6 6 5 5 4 4 3 3 3 4 5 5 5 6 6 5 5 6 8 9 8 7 5 4 2 1 2 2 3 6 7 7 7 7 6 6 6 6 5
9 7 6 6 6 6 6 5 4 4 3 3 4 4 4 5 6 6 6 6 5 5 5 6 6 4 3 2 2 1 1 1 2 1 3 6 7 7 7 7 7 7 7
10 8 6 6 6 6 5 4 4 4 4 4 4 3 4 4 6 6 5 5 5 5 3 2 3 2 0 1 1 0 1 1 2 2 2 4 6 8 8 9 8 8 8
11 9 7 6 7 5 5 4 4 4 4 4 3 4 4 4 4 4 4 4 3 3 3 2 2 2 2 2 2 1 2 2 2 2 3 4 5 6 8 8 9 9 9
11 9 7 7 7 6 5 5 5 4 4 3 3 4 3 3 2 2 2 2 2 3 2 2 1 3 4 4 4 3 2 2 3 3 4 5 6 6 7 7 7 8 9
11 9 6 7 6 6 6 6 5 5 4 3 3 3 3 2 1 0 1 1 2 3 3 3 2 2 3 5 6 5 4 3 3 4 4 6 6 6 7 7 7 7 7
11 9 8 6 6 5 6 6 6 4 4 3 3 3 3 4 3 1 1 1 2 3 3 4 4 3 2 2 6 7 6 4 4 5 5 7 6 6 6 5 5 5 6
10 9 8 7 6 6 6 7 7 7 5 4 4 4 3 3 2 3 1 1 1 1 2 3 4 4 3 3 3 6 7 7 6 6 7 7 6 6 6 6 5 4 4
9 9 9 8 7 6 6 6 6 6 6 5 4 4 5 3 4 3 3 2 1 0 1 1 2 3 3 3 4 7 8 7 7 7 7 7 7 7 6 7 8 6 5
8 9 9 8 7 6 7 7 6 6 5 6 5 4 4 4 6 5 5 3 3 2 0 0 0 1 2 3 3 6 7 7 7 7 7 7 9 9 9 9 9 9 8
6 8 8 8 8 7 7 7 7 7 6 6 5 4 4 4 5 5 6 5 4 2 1 1 0 1 1 2 4 6 7 7 8 8 7 8 9 9 10 10 10 10 10
6 8 8 8 7 7 7 7 6 6 6 6 5 4 4 4 3 4 5 5 4 3 2 2 1 1 1 1 3 5 6 7 8 8 9 9 9 9 10 10 10 10 10
7 8 8 8 8 8 7 6 5 6 5 5 4 4 4 3 3 4 4 4 4 4 4 4 2 2 2 1 3 3 4 6 6 7 8 8 8 9 9 9 10 10 11
6 9 8 8 7 7 7 7 5 6 5 5 5 5 4 3 3 3 3 4 4 4 4 3 3 2 2 2 2 2 3 6 6 6 7 7 8 8 8 9 10 10 11
8 9 9 8 8 7 7 7 6 6 7 6 4 5 4 3 3 3 3 3 4 4 3 1 2 2 2 2 2 2 3 5 6 5 6 7 7 7 8 8 9 10 10
9 10 9 9 9 8 7 7 6 7 7 6 6 5 5 4 3 3 3 3 3 4 5 2 1 2 2 2 2 2 2 2 3 5 5 5 6 6 7 7 8 9 10
9 9 9 9 9 9 8 8 8 8 8 7 7 6 6 4 4 3 3 3 3 4 4 4 2 2 2 2 2 1 1 2 2 4 4 5 5 6 6 6 7 8 9
8 8 9 9 9 9 8 8 8 8 7 7 7 7 6 6 5 4 4 3 3 3 3 3 2 2 1 2 2 1 1 1 1 2 2 4 5 5 6 6 7 7 8
8 9 9 9 8 8 8 8 8 8 7 7 6 6 6 5 5 5 4 4 3 4 4 4 3 2 2 2 2 2 2 1 1 0 1 2 3 4 5 6 6 7 7
8 8 9 8 8 8 8 9 8 8 8 7 7 6 5 5 4 4 3 4 4 4 4 4 4 3 3 3 3 3 3 2 2 1 2 1 0 1 2 4 5 6 6
7 8 9 9 9 7 10 11 9 8 8 8 7 6 6 6 6 6 5 4 3 4 5 4 4 5 5 5 3 3 3 2 3 2 2 1 1 0 1 3 5 5 5
8 8 9 9 9 9 13 13 12 8 8 7 7 7 6 6 7 5 6 5 4 3 4 5 5 5 4 5 5 5 4 3 2 1 2 2 2 2 1 2 4 4 4
8 8 9 9 9 10 14 14 13 8 7 7 8 8 7 8 7 7 6 5 4 3 3 4 4 3 3 4 4 4 3 2 1 1 2 2 2 2 1 1 3 4 3
7 7 7 8 9 10 14 15 13 8 7 8 7 8 8 8 10 10 7 6 5 4 3 2 1 2 3 4 5 4 4 3 3 3 2 2 1 1 2 2 1 2 2
7 7 7 8 9 10 14 16 14 7 7 7 7 8 10 10 11 12 8 7 7 5 5 5 4 5 5 5 5 4 4 3 2 2 3 2 2 1 2 2 2 2 1
Wind_Direction
173 172 174 177 183 182 187 195 204 202 215 224 236 255 262 269 277 279 272 252 279 286 285 282 279 273 269 265 264 266 265 258 252 250 249 252 260 265 268 275 278 283 292
177 177 179 183 185 190 194 202 208 217 227 238 252 262 273 279 281 284 289 274 254 275 284 285 281 278 272 268 257 286 292 289 271 258 253 252 255 260 263 267 268 270 275
185 186 189 190 191 191 196 207 212 228 237 246 254 266 277 285 288 288 290 293 285 269 278 289 287 286 271 231 219 260 324 32 23 337 280 262 257 259 260 262 263 264 265
192 194 195 197 193 193 201 208 219 226 232 243 255 264 273 282 287 297 296 295 297 299 286 305 307 308 199 178 211 235 104 87 51 15 341 305 277 266 263 258 258 259 258
197 199 201 199 194 198 203 205 219 229 235 242 256 270 278 282 292 294 300 313 320 319 317 38 47 47 78 95 90 90 95 80 48 0 335 322 309 284 270 264 259 258 254
196 198 199 199 195 199 202 205 209 219 240 249 255 263 270 282 286 304 320 339 357 359 351 4 65 74 67 71 68 67 74 69 39 5 340 328 315 300 280 275 270 263 257
191 192 193 196 197 203 205 207 211 216 225 239 247 252 241 238 248 29 17 16 42 39 39 36 35 48 71 62 50 41 38 32 15 358 341 330 321 313 300 285 279 271 270
188 187 189 190 194 203 207 208 209 214 214 220 239 255 252 214 184 150 76 58 54 56 54 45 47 42 43 48 49 38 23 8 356 350 338 333 328 324 320 312 297 287 274
185 184 184 185 191 201 207 208 208 214 214 210 228 245 256 259 231 189 160 138 86 72 65 54 50 44 36 38 42 37 24 16 2 351 347 345 341 336 339 348 338 324 312
187 186 185 185 191 197 204 206 210 215 221 216 212 236 257 274 259 250 196 183 152 96 60 60 58 54 39 35 40 35 25 19 9 359 352 355 0 1 360 3 10 2 349
187 186 185 184 189 195 200 198 199 206 219 225 216 214 226 238 243 251 254 227 212 195 164 43 58 67 52 34 28 34 27 22 14 5 9 20 24 26 25 24 23 20 13
190 189 183 185 188 194 193 193 195 199 208 215 216 216 220 224 225 235 250 254 253 217 190 196 190 119 72 46 37 30 31 28 21 21 27 35 30 25 21 22 22 18 11
197 193 185 186 187 190 187 184 187 190 199 202 205 211 221 232 236 239 250 256 257 245 213 206 181 150 106 66 42 25 40 34 29 28 30 37 32 26 23 22 21 20 13
196 185 185 183 181 179 176 177 177 179 184 191 199 204 210 213 219 223 233 242 253 243 222 211 169 164 130 92 52 24 45 43 43 44 43 42 36 29 27 23 20 18 13
185 178 179 178 174 172 172 170 178 177 176 184 190 195 202 196 204 217 226 232 243 254 242 193 179 164 149 115 70 43 48 54 57 57 53 49 42 34 27 23 19 16 12
180 176 178 175 171 170 170 173 172 175 175 177 180 186 187 187 191 200 215 228 238 249 254 168 172 159 158 131 96 76 61 61 58 58 53 48 41 33 29 25 21 16 12
179 180 177 175 173 172 175 176 178 176 179 176 179 185 185 185 192 194 202 215 224 232 246 219 157 159 168 163 137 109 74 51 54 52 52 46 39 33 31 28 25 19 16
175 176 176 175 175 177 179 180 179 181 182 182 183 184 185 183 190 192 203 212 219 224 240 236 182 171 179 178 167 143 87 60 51 51 49 46 40 36 34 31 28 26 23
174 174 175 177 177 177 178 182 180 181 183 184 184 187 186 188 193 193 199 203 209 219 229 235 198 168 162 170 174 163 133 88 58 40 52 50 44 40 40 38 33 31 32
177 178 178 178 177 176 176 176 178 179 178 178 180 184 186 193 196 192 195 200 202 213 216 217 200 182 177 177 193 197 198 202 199 5 68 44 46 47 44 40 39 37 38
182 179 177 176 175 176 179 178 178 178 176 176 177 180 181 178 182 193 198 197 199 209 210 207 201 191 192 191 200 193 209 200 200 240 243 213 293 37 42 34 41 43 43
184 181 181 179 180 183 179 181 178 178 178 179 178 177 171 172 179 189 189 195 211 218 215 212 213 214 212 204 186 187 188 201 214 187 239 210 230 186 47 25 29 41 48
189 188 188 186 188 185 181 184 185 180 181 182 180 179 178 182 183 183 177 179 189 213 243 237 229 224 213 197 185 189 194 208 211 133 233 209 201 207 113 33 28 41 53
199 196 193 191 190 189 187 186 183 183 184 186 189 190 188 187 187 186 190 195 200 198 210 230 240 227 206 180 180 184 180 176 158 163 238 227 206 212 192 165 42 33 41
208 206 198 193 193 193 191 189 182 184 188 191 194 197 197 197 188 188 192 198 202 196 181 195 192 161 151 163 168 162 168 186 200 183 193 230 201 216 222 207 136 28 26
211 206 204 203 200 199 193 191 188 190 193 191 193 198 204 204 192 194 200 201 207 200 184 173 166 161 167 165 179 192 186 195 198 192 174 201 189 202 218 201 214 244 251
Height
1544 1546 1548 1550 1551 1553 1554 1555 1556 1556 1557 1557 1557 1557 1557 1557 1556 1555 1554 1552 1551 1551 1550 1549 1549 1548 1547 1546 1545 1545 1544 1543 1542 1542 1541 1540 1539 1539 1538 1537 1536 1536 1535
1542 1544 1546 1548 1550 1551 1552 1553 1555 1555 1556 1556 1556 1555 1555 1555 1554 1553 1552 1551 1549 1548 1548 1547 1547 1546 1545 1544 1544 1543 1542 1541 1540 1540 1539 1538 1538 1537 1536 1536 1535 1535 1534
1541 1543 1545 1547 1548 1549 1550 1552 1553 1553 1553 1554 1554 1554 1553 1553 1552 1551 1550 1548 1547 1546 1545 1545 1544 1544 1543 1542 1542 1541 1540 1539 1538 1538 1537 1536 1536 1535 1534 1534 1533 1533 1532
1539 1541 1543 1545 1546 1547 1548 1550 1551 1551 1552 1552 1552 1552 1551 1550 1549 1548 1547 1546 1545 1544 1543 1542 1542 1541 1541 1540 1540 1539 1538 1537 1536 1536 1535 1534 1533 1533 1532 1531 1531 1531 1530
1537 1539 1541 1543 1544 1545 1546 1547 1548 1549 1550 1550 1549 1549 1548 1547 1546 1545 1544 1543 1542 1541 1540 1539 1539 1539 1538 1538 1538 1537 1536 1535 1534 1533 1532 1531 1530 1530 1529 1528 1528 1528 1528
1534 1537 1538 1540 1541 1543 1544 1545 1546 1547 1547 1547 1547 1546 1546 1545 1544 1543 1542 1541 1540 1539 1538 1537 1537 1537 1536 1536 1535 1535 1534 1533 1532 1531 1530 1529 1528 1527 1526 1526 1525 1525 1525
1531 1533 1535 1537 1538 1540 1541 1542 1543 1544 1544 1544 1544 1544 1543 1542 1541 1540 1539 1539 1538 1537 1536 1536 1535 1535 1534 1534 1533 1533 1532 1531 1530 1529 1528 1527 1525 1524 1523 1522 1522 1522 1522
1528 1529 1531 1533 1535 1537 1538 1539 1540 1541 1541 1542 1542 1542 1542 1542 1538 1538 1537 1536 1535 1535 1534 1533 1533 1533 1532 1532 1531 1531 1530 1529 1528 1527 1526 1524 1523 1521 1520 1519 1519 1519 1519
1524 1526 1528 1530 1532 1534 1535 1536 1537 1538 1538 1539 1539 1540 1540 1539 1538 1536 1534 1533 1533 1532 1531 1531 1530 1530 1530 1529 1528 1528 1527 1527 1526 1525 1523 1522 1520 1519 1518 1517 1516 1516 1516
1519 1521 1523 1525 1528 1530 1531 1532 1534 1534 1535 1535 1535 1535 1536 1535 1535 1534 1532 1530 1530 1529 1529 1528 1527 1527 1527 1526 1525 1525 1524 1524 1523 1522 1521 1519 1518 1517 1515 1514 1513 1513 1513
1514 1516 1519 1521 1523 1525 1527 1528 1529 1530 1531 1531 1531 1531 1530 1530 1530 1531 1530 1529 1527 1526 1525 1524 1524 1523 1523 1523 1522 1521 1521 1520 1520 1519 1518 1516 1515 1514 1513 1512 1511 1510 1510
1509 1511 1513 1516 1519 1521 1522 1524 1525 1526 1526 1526 1526 1526 1526 1526 1526 1526 1526 1525 1524 1522 1521 1520 1520 1519 1519 1519 1519 1518 1518 1517 1517 1516 1515 1513 1512 1511 1510 1509 1508 1507 1507
1504 1506 1508 1510 1513 1515 1517 1518 1519 1520 1521 1521 1521 1522 1521 1521 1521 1521 1521 1521 1520 1519 1517 1516 1516 1516 1515 1515 1515 1515 1514 1514 1513 1513 1512 1510 1509 1508 1507 1506 1506 1505 1504
1499 1501 1503 1505 1507 1510 1512 1513 1514 1515 1516 1517 1517 1517 1517 1516 1516 1516 1516 1517 1516 1515 1514 1513 1512 1512 1512 1512 1512 1512 1511 1511 1510 1509 1508 1506 1506 1505 1504 1503 1503 1502 1501
1494 1496 1498 1499 1502 1504 1507 1508 1509 1510 1511 1512 1512 1512 1512 1512 1511 1511 1511 1512 1513 1513 1512 1510 1509 1509 1509 1508 1508 1508 1508 1507 1506 1506 1505 1503 1502 1502 1501 1500 1500 1499 1499
1489 1491 1493 1495 1497 1499 1501 1503 1504 1505 1506 1506 1507 1507 1507 1507 1507 1506 1507 1507 1507 1508 1508 1507 1506 1506 1506 1505 1505 1505 1505 1504 1503 1503 1502 1501 1500 1499 1498 1498 1498 1497 1497
1484 1486 1488 1490 1492 1494 1496 1498 1499 1500 1501 1501 1502 1502 1502 1502 1502 1502 1502 1502 1502 1503 1503 1503 1503 1502 1502 1502 1502 1502 1502 1502 1501 1500 1499 1498 1497 1497 1496 1495 1495 1495 1495
1479 1481 1484 1486 1488 1490 1492 1493 1495 1495 1496 1497 1497 1498 1498 1497 1497 1497 1497 1497 1498 1498 1499 1499 1499 1499 1499 1499 1499 1499 1499 1499 1498 1497 1497 1496 1495 1494 1494 1493 1493 1493 1493
1475 1477 1479 1481 1483 1485 1487 1488 1490 1491 1492 1492 1493 1493 1493 1493 1493 1493 1493 1493 1493 1494 1494 1495 1495 1495 1495 1495 1496 1496 1496 1496 1496 1495 1494 1493 1493 1492 1492 1491 1491 1491 1491
1471 1473 1475 1477 1479 1481 1482 1484 1485 1486 1487 1487 1488 1488 1488 1489 1489 1489 1489 1489 1489 1490 1490 1491 1491 1491 1492 1492 1492 1493 1493 1493 1493 1492 1492 1491 1491 1490 1490 1489 1489 1489 1489
1467 1469 1471 1472 1474 1476 1478 1479 1480 1481 1482 1483 1483 1484 1484 1484 1484 1485 1485 1485 1485 1486 1486 1487 1487 1488 1488 1489 1489 1489 1490 1490 1490 1490 1489 1489 1489 1488 1488 1488 1488 1488 1488
1463 1465 1466 1468 1469 1471 1473 1474 1476 1477 1477 1478 1478 1479 1479 1480 1480 1481 1481 1481 1482 1482 1482 1483 1484 1484 1485 1485 1486 1486 1487 1487 1488 1488 1487 1487 1487 1486 1486 1486 1486 1486 1487
1459 1460 1461 1463 1464 1466 1468 1470 1471 1472 1473 1473 1474 1474 1475 1475 1476 1477 1477 1477 1478 1478 1479 1480 1480 1481 1482 1482 1483 1483 1484 1484 1485 1485 1485 1485 1485 1485 1485 1484 1484 1485 1485
1454 1455 1456 1458 1459 1461 1463 1464 1466 1467 1468 1468 1469 1470 1471 1471 1472 1472 1473 1473 1474 1474 1475 1476 1477 1477 1478 1479 1479 1481 1481 1482 1482 1482 1483 1483 1483 1483 1483 1483 1483 1483 1483
1449 1451 1452 1453 1454 1456 1458 1459 1461 1462 1463 1463 1464 1465 1466 1467 1467 1468 1469 1470 1471 1471 1472 1472 1473 1474 1474 1476 1476 1478 1478 1479 1479 1480 1481 1481 1481 1481 1481 1481 1481 1481 1482
1445 1446 1446 1448 1449 1451 1452 1454 1455 1456 1458 1459 1459 1461 1462 1462 1463 1464 1465 1466 1467 1468 1469 1469 1470 1471 1472 1472 1473 1474 1475 1476 1477 1478 1478 1478 1478 1479 1479 1479 1479 1479 1480